Previsão horária em Santarém

Hoje, 30 Julho, Sexta-feira

Tempo Temperatura Precipitação Vento Pressão Humidade
00:00 +14°C° 0 mm 3 m/s 759 mmHg 93%
01:00 +14°C° 0 mm 3 m/s 759 mmHg 93%
02:00 +14°C° 0 mm 3 m/s 759 mmHg 94%
03:00 +16°C° 0 mm 3 m/s 759 mmHg 93%
04:00 +17°C° 0 mm 4 m/s 759 mmHg 91%
05:00 +17°C° 0 mm 4 m/s 759 mmHg 90%
06:00 +20°C° 0 mm 4 m/s 759 mmHg 80%
07:00 +22°C° 0 mm 5 m/s 760 mmHg 69%
08:00 +25°C° 0 mm 5 m/s 760 mmHg 58%
09:00 +27°C° 0 mm 6 m/s 760 mmHg 52%
10:00 +29°C° 0 mm 6 m/s 760 mmHg 46%
11:00 +30°C° 0 mm 6 m/s 760 mmHg 40%
12:00 +30°C° 0 mm 7 m/s 759 mmHg 39%
13:00 +30°C° 0 mm 7 m/s 759 mmHg 37%
14:00 +30°C° 0 mm 7 m/s 759 mmHg 35%
15:00 +28°C° 0 mm 7 m/s 759 mmHg 41%
16:00 +27°C° 0 mm 7 m/s 759 mmHg 46%
17:00 +24°C° 0 mm 7 m/s 760 mmHg 52%
18:00 +22°C° 0 mm 6 m/s 760 mmHg 62%
19:00 +20°C° 0 mm 5 m/s 760 mmHg 72%
20:00 +18°C° 0 mm 4 m/s 760 mmHg 82%
21:00 +17°C° 0 mm 5 m/s 761 mmHg 83%
22:00 +17°C° 0 mm 5 m/s 761 mmHg 83%
23:00 +16°C° 0 mm 5 m/s 761 mmHg 84%

Amanhã, 31 Julho, Sábado

Tempo Temperatura Precipitação Vento Pressão Humidade
00:00 +16°C° 0 mm 5 m/s 761 mmHg 82%
01:00 +16°C° 0 mm 5 m/s 761 mmHg 80%
02:00 +16°C° 0 mm 6 m/s 760 mmHg 78%
03:00 +16°C° 0 mm 6 m/s 760 mmHg 78%
04:00 +16°C° 0 mm 6 m/s 760 mmHg 78%
05:00 +16°C° 0 mm 6 m/s 761 mmHg 78%
06:00 +17°C° 0 mm 6 m/s 761 mmHg 68%
07:00 +20°C° 0 mm 7 m/s 761 mmHg 58%
08:00 +22°C° 0 mm 8 m/s 761 mmHg 48%
09:00 +23°C° 0 mm 8 m/s 761 mmHg 44%
10:00 +24°C° 0 mm 8 m/s 761 mmHg 40%
11:00 +26°C° 0 mm 8 m/s 761 mmHg 36%
12:00 +26°C° 0 mm 8 m/s 761 mmHg 37%
13:00 +26°C° 0 mm 8 m/s 761 mmHg 38%
14:00 +26°C° 0 mm 8 m/s 761 mmHg 39%
15:00 +24°C° 0 mm 8 m/s 761 mmHg 42%
16:00 +23°C° 0 mm 8 m/s 761 mmHg 44%
17:00 +22°C° 0 mm 8 m/s 761 mmHg 47%
18:00 +20°C° 0 mm 7 m/s 761 mmHg 58%
19:00 +19°C° 0 mm 6 m/s 761 mmHg 69%
20:00 +16°C° 0 mm 6 m/s 762 mmHg 80%
21:00 +16°C° 0 mm 5 m/s 762 mmHg 83%
22:00 +16°C° 0 mm 5 m/s 761 mmHg 85%
23:00 +17°C° 0 mm 4 m/s 761 mmHg 87%

Depois de amanhã, 1 Agosto, Domingo

Tempo Temperatura Precipitação Vento Pressão Humidade
00:00 +15°C° 0 mm 4 m/s 761 mmHg 89%
01:00 +16°C° 0 mm 3 m/s 761 mmHg 90%
02:00 +16°C° 0 mm 3 m/s 760 mmHg 91%
03:00 +14°C° 0 mm 3 m/s 761 mmHg 91%
04:00 +14°C° 0 mm 3 m/s 761 mmHg 92%
05:00 +15°C° 0 mm 2 m/s 761 mmHg 93%
06:00 +17°C° 0 mm 3 m/s 761 mmHg 78%
07:00 +20°C° 0 mm 4 m/s 761 mmHg 64%
08:00 +22°C° 0 mm 5 m/s 761 mmHg 50%
09:00 +25°C° 0 mm 5 m/s 760 mmHg 42%
10:00 +27°C° 0 mm 6 m/s 760 mmHg 35%
11:00 +28°C° 0 mm 6 m/s 760 mmHg 27%
12:00 +28°C° 0 mm 6 m/s 760 mmHg 28%
13:00 +28°C° 0 mm 7 m/s 760 mmHg 30%
14:00 +28°C° 0 mm 7 m/s 759 mmHg 31%
15:00 +27°C° 0 mm 7 m/s 759 mmHg 37%
16:00 +24°C° 0 mm 7 m/s 759 mmHg 44%
17:00 +23°C° 0 mm 6 m/s 759 mmHg 51%
18:00 +21°C° 0 mm 5 m/s 760 mmHg 61%
19:00 +19°C° 0 mm 4 m/s 760 mmHg 71%
20:00 +18°C° 0 mm 3 m/s 760 mmHg 81%
21:00 +17°C° 0 mm 3 m/s 760 mmHg 83%
22:00 +17°C° 0 mm 3 m/s 759 mmHg 85%
23:00 +17°C° 0 mm 3 m/s 759 mmHg 87%

2 Agosto, Segunda-feira

Tempo Temperatura Precipitação Vento Pressão Humidade
00:00 +17°C° 0 mm 3 m/s 759 mmHg 88%
01:00 +17°C° 0 mm 3 m/s 759 mmHg 88%
02:00 +17°C° 0 mm 3 m/s 759 mmHg 89%
03:00 +16°C° 0 mm 3 m/s 759 mmHg 90%
04:00 +16°C° 0 mm 3 m/s 759 mmHg 91%
05:00 +16°C° 0 mm 2 m/s 759 mmHg 92%
06:00 +18°C° 0 mm 3 m/s 759 mmHg 79%
07:00 +21°C° 0 mm 4 m/s 759 mmHg 66%
08:00 +23°C° 0 mm 4 m/s 758 mmHg 53%
09:00 +26°C° 0 mm 5 m/s 758 mmHg 47%
10:00 +28°C° 0 mm 5 m/s 758 mmHg 40%
11:00 +30°C° 0 mm 5 m/s 758 mmHg 33%
12:00 +30°C° 0 mm 5 m/s 758 mmHg 33%
13:00 +30°C° 0 mm 6 m/s 758 mmHg 32%
14:00 +32°C° 0 mm 6 m/s 757 mmHg 32%
15:00 +29°C° 0 mm 6 m/s 757 mmHg 36%
16:00 +27°C° 0 mm 6 m/s 758 mmHg 41%
17:00 +24°C° 0 mm 6 m/s 758 mmHg 46%
18:00 +22°C° 0 mm 6 m/s 758 mmHg 57%
19:00 +20°C° 0 mm 5 m/s 758 mmHg 69%
20:00 +18°C° 0 mm 4 m/s 759 mmHg 81%
21:00 +18°C° 0 mm 4 m/s 759 mmHg 85%
22:00 +17°C° 0 mm 3 m/s 759 mmHg 89%
23:00 +17°C° 0 mm 3 m/s 759 mmHg 93%

3 Agosto, Terça-feira

Tempo Temperatura Precipitação Vento Pressão Humidade
00:00 +17°C° 0 mm 3 m/s 759 mmHg 94%
01:00 +16°C° 0 mm 2 m/s 759 mmHg 95%
02:00 +16°C° 0 mm 2 m/s 759 mmHg 96%
03:00 +16°C° 0 mm 2 m/s 759 mmHg 96%
04:00 +16°C° 0 mm 2 m/s 759 mmHg 96%
05:00 +16°C° 0 mm 2 m/s 760 mmHg 96%
06:00 +19°C° 0 mm 2 m/s 760 mmHg 83%
07:00 +21°C° 0 mm 2 m/s 760 mmHg 70%
08:00 +25°C° 0 mm 2 m/s 760 mmHg 57%
09:00 +28°C° 0 mm 3 m/s 760 mmHg 48%
10:00 +30°C° 0 mm 3 m/s 760 mmHg 39%
11:00 +34°C° 0 mm 3 m/s 760 mmHg 31%
12:00 +34°C° 0 mm 4 m/s 760 mmHg 30%
13:00 +34°C° 0 mm 5 m/s 759 mmHg 29%
14:00 +34°C° 0 mm 6 m/s 759 mmHg 29%
15:00 +32°C° 0 mm 6 m/s 759 mmHg 32%
16:00 +29°C° 0 mm 7 m/s 760 mmHg 34%
17:00 +27°C° 0 mm 7 m/s 760 mmHg 37%
18:00 +24°C° 0 mm 6 m/s 760 mmHg 48%
19:00 +21°C° 0 mm 5 m/s 761 mmHg 58%
20:00 +19°C° 0 mm 4 m/s 761 mmHg 69%
21:00 +19°C° 0 mm 4 m/s 761 mmHg 73%
22:00 +18°C° 0 mm 4 m/s 761 mmHg 77%
23:00 +18°C° 0 mm 4 m/s 761 mmHg 81%

4 Agosto, Quarta-feira

Tempo Temperatura Precipitação Vento Pressão Humidade
00:00 +18°C° 0 mm 4 m/s 761 mmHg 84%
01:00 +19°C° 0 mm 4 m/s 761 mmHg 87%
02:00 +19°C° 0 mm 4 m/s 760 mmHg 89%
03:00 +19°C° 0 mm 4 m/s 761 mmHg 90%
04:00 +19°C° 0 mm 4 m/s 761 mmHg 90%
05:00 +19°C° 0 mm 3 m/s 761 mmHg 91%
06:00 +21°C° 0 mm 4 m/s 761 mmHg 78%
07:00 +25°C° 0 mm 5 m/s 761 mmHg 65%
08:00 +27°C° 0 mm 5 m/s 761 mmHg 53%
09:00 +29°C° 0 mm 6 m/s 761 mmHg 47%
10:00 +32°C° 0 mm 6 m/s 761 mmHg 41%
11:00 +34°C° 0 mm 6 m/s 760 mmHg 35%
12:00 +33°C° 0 mm 7 m/s 760 mmHg 35%
13:00 +33°C° 0 mm 7 m/s 760 mmHg 35%
14:00 +33°C° 0 mm 8 m/s 760 mmHg 35%
15:00 +30°C° 0 mm 7 m/s 760 mmHg 38%
16:00 +29°C° 0 mm 7 m/s 760 mmHg 42%
17:00 +27°C° 0 mm 7 m/s 760 mmHg 45%
18:00 +24°C° 0 mm 7 m/s 761 mmHg 55%
19:00 +22°C° 0 mm 6 m/s 761 mmHg 65%
20:00 +20°C° 0 mm 5 m/s 761 mmHg 75%
21:00 +20°C° 0 mm 5 m/s 761 mmHg 78%
22:00 +20°C° 0 mm 5 m/s 761 mmHg 81%
23:00 +19°C° 0 mm 4 m/s 761 mmHg 84%
Mostrar mais

Necessitamos do seu Consentimento

A Meteoprog e os seus Fornecedores de Serviços podem armazenar e aceder a dados pessoais como cookies, identificadores do dispositivo ou outras tecnologias semelhantes existentes no seu dispositivo e processar estes dados para personalizar conteúdos e anúncios, assim como funcionalidades nas redes sociais e análise de tráfego.

  • Armazenar e/ou aceder a informações no seu dispositivo

    Os cookies, identificadores do dispositivo ou outras informações podem ser armazenados ou acedidos no seu dispositivo, para os fins acima indicados.

  • Anúncios e conteúdos personalizados, medição de anúncios e conteúdos, dados sobre o público-alvo e desenvolvimento de produtos

    Os anúncios e os conteúdos podem ser personalizados com base num perfil. Podem ser adicionados dados adicionais para uma maior personalização dos anúncios e dos conteúdos. A eficácia dos anúncios e dos conteúdos pode ser medida. Podem ser obtidas informações sobre o público que visualizou os anúncios e os conteúdos. Estes dados podem ser usados para desenvolver ou melhorar sistemas, softwares ou a experiência do utilizador.

Ao clicar em "Eu concordo”, permitirá o uso de cookies, identificadores do dispositivo e web beacons mencionados ou outras tecnologias semelhantes. As configurações do navegador do seu dispositivo podem ser alteradas.

Para certos fins, podem ser invocados interesses legítimos ao invés de consentimento. Pode ler mais informação sobre este assunto na nossa Política de Privacidade e Cookies.